RH
71 70 70 70 70 70 68 66 65 63 65 66 67 66 65 64 63 62 60 60 60 61 61 62 62 61 58 57 55 53 49 43 38 36 35 33 31 29 27 26 26 27 28 28 28 26 25 25 25 25 27 27 27 27 27 29 29 28 27 27 30 33 33 29 26 26 29 31 32 32 31 29 29 31 33 33 30 26 24 23 23 23 22 21 19 17 15 13
73 73 72 72 70 70 69 67 65 62 62 63 64 65 64 62 59 57 56 54 52 51 52 52 53 52 49 48 50 52 51 52 52 53 53 51 50 48 45 43 40 38 37 35 32 29 26 25 24 23 23 23 22 21 21 22 23 23 23 22 27 30 27 25 24 25 28 31 32 33 32 31 31 33 36 38 37 37 37 38 41 42 42 40 40 39 38 36
76 75 74 73 72 71 70 68 67 64 62 62 62 62 61 60 58 56 54 51 47 43 39 39 40 41 40 38 39 41 40 41 42 42 42 40 37 35 32 30 28 26 25 24 22 21 19 17 17 17 17 17 16 16 16 16 17 17 17 18 22 23 21 21 22 22 23 25 26 26 27 28 28 29 29 29 30 33 37 40 42 45 47 48 49 50 50 51
77 76 75 74 72 72 71 70 69 67 64 63 62 60 59 58 56 54 49 44 38 31 27 25 26 27 30 32 33 35 35 34 32 31 29 25 22 21 20 19 18 17 17 17 16 16 15 14 14 14 15 15 14 14 14 15 15 15 15 17 20 20 19 20 20 21 21 22 23 22 23 26 26 26 25 25 26 28 32 36 37 40 44 47 50 53 53 54
78 78 77 76 75 74 72 72 71 69 66 63 61 59 58 56 54 49 42 34 25 19 15 13 14 16 19 24 27 28 29 27 25 24 21 18 17 16 15 14 14 13 13 13 13 13 13 13 14 14 15 15 16 16 17 17 17 17 18 20 21 21 21 21 22 22 22 22 22 23 23 24 24 25 24 24 25 27 30 32 34 39 44 47 51 54 55 56
78 78 77 77 76 75 73 72 70 68 64 61 59 57 55 51 46 39 30 22 15 10 9 7 8 9 12 16 19 22 22 19 19 18 15 14 13 12 12 11 11 11 12 12 13 14 15 16 17 17 18 19 19 19 20 20 19 19 20 21 22 22 22 22 22 22 23 23 23 23 23 22 23 23 23 24 24 26 28 32 36 41 47 52 55 57 57 58
78 77 78 77 76 75 73 71 67 65 63 60 58 55 50 43 33 24 17 12 8 7 6 6 6 6 8 9 12 16 15 13 14 14 13 13 12 12 13 13 14 14 15 16 17 18 18 18 19 19 19 19 19 19 19 18 17 17 17 18 18 19 19 19 19 20 21 22 22 22 22 21 21 22 24 26 26 29 34 39 42 46 51 56 60 63 64 64
80 79 80 79 77 75 70 67 64 62 60 57 53 47 39 30 21 14 10 8 6 6 6 7 8 9 9 10 12 14 14 14 14 14 14 15 15 15 16 16 17 17 17 18 18 18 17 17 17 17 17 16 16 15 15 15 14 14 14 15 15 15 16 16 16 17 18 20 22 24 24 22 21 23 27 30 33 39 46 52 56 59 62 65 69 72 73 73
83 82 82 80 77 73 67 62 58 56 53 48 42 35 26 18 12 10 8 6 6 9 12 15 17 17 17 17 18 18 18 17 16 16 16 16 17 17 17 17 17 17 17 17 17 16 16 16 16 16 16 16 16 16 16 17 17 16 16 18 19 19 19 19 19 18 20 22 24 28 30 28 28 30 32 36 41 48 54 59 64 66 68 70 71 72 72 72
83 83 81 78 74 68 63 58 52 47 42 37 30 23 17 12 10 8 7 9 13 17 20 21 22 22 22 22 22 21 19 18 18 18 17 17 17 17 17 17 16 16 16 16 15 15 15 16 16 17 18 19 20 20 21 23 23 23 24 25 26 28 28 28 27 26 27 29 31 37 39 35 34 35 37 41 45 49 53 55 57 58 59 60 61 60 59 57
83 82 79 74 69 62 57 52 46 39 33 27 20 15 12 9 7 8 11 16 21 23 23 23 23 23 23 22 22 21 19 18 18 18 17 17 17 17 17 16 16 16 16 16 16 17 18 18 18 20 22 23 24 24 25 27 29 30 30 31 34 37 38 37 37 37 38 38 39 42 42 39 37 39 40 42 43 44 44 45 45 46 46 46 46 45 44 44
83 81 75 69 63 57 53 47 39 32 25 18 14 11 9 7 9 14 20 23 24 24 24 24 24 23 23 22 21 20 19 19 18 18 17 17 17 18 18 18 18 17 18 18 18 18 19 20 19 20 21 22 24 25 27 29 30 32 32 35 41 43 43 43 43 44 46 46 46 46 44 42 42 43 43 42 41 40 40 39 39 39 38 38 37 37 38 40
82 76 70 65 59 54 47 39 31 23 16 12 10 8 8 11 17 22 25 26 26 26 25 25 24 23 22 21 20 19 19 19 19 18 18 17 17 17 17 17 17 16 17 16 17 17 17 18 17 17 18 17 19 21 23 23 24 26 27 30 38 42 45 47 48 48 49 50 49 49 47 47 48 49 49 48 46 44 43 42 43 44 45 46 48 51 53 55
75 69 64 59 52 45 37 28 20 14 10 8 8 10 15 21 25 27 27 27 27 25 25 24 23 22 21 21 20 20 20 19 19 18 17 16 16 15 15 16 16 16 16 15 15 15 15 15 15 15 15 15 16 16 16 17 17 18 20 21 26 31 38 43 47 48 48 47 48 50 49 48 51 51 50 49 47 45 42 41 41 42 43 45 48 51 54 57
68 62 57 51 43 34 25 17 11 8 8 10 14 19 24 27 28 28 28 27 26 25 25 24 23 22 21 20 19 19 18 17 17 16 15 15 14 15 14 15 16 16 15 15 15 15 15 15 14 14 14 13 13 13 13 13 13 13 14 15 16 18 22 28 33 36 37 38 41 44 44 43 47 50 50 50 49 47 45 43 42 41 40 40 40 41 41 43
61 55 48 41 33 23 14 9 8 10 14 20 25 28 29 30 29 29 28 26 26 25 24 23 21 20 19 19 17 16 16 16 15 15 15 14 15 15 15 16 15 15 14 13 12 12 12 11 10 9 9 9 8 8 8 8 9 9 9 10 11 11 13 14 17 18 21 23 24 28 27 26 29 34 37 40 43 45 46 46 46 45 45 44 43 43 42 41
54 46 39 30 21 13 8 9 14 20 25 29 31 31 31 30 29 28 27 26 26 25 23 22 20 19 18 17 16 16 15 16 15 16 15 14 14 14 14 13 11 10 9 8 7 7 6 6 6 6 6 6 6 6 6 6 7 7 7 7 9 9 10 11 11 11 12 13 13 13 13 12 14 16 19 22 25 28 30 31 32 33 34 34 34 34 34 34
45 36 28 19 12 8 12 19 26 30 31 32 32 32 31 30 29 28 27 26 25 24 21 20 19 18 17 16 16 16 15 16 15 14 13 11 10 9 8 7 6 6 5 5 5 5 5 5 5 5 5 5 6 6 6 6 6 7 7 7 8 9 9 10 9 10 11 11 11 10 11 11 11 12 13 15 17 20 22 24 25 26 26 27 28 29 30 31
35 26 17 11 10 15 23 29 32 33 33 33 32 32 31 30 29 28 26 25 24 22 21 19 19 18 17 16 15 14 14 13 11 8 7 6 5 5 5 5 5 5 5 5 5 5 5 5 6 6 6 6 7 7 7 7 7 8 8 8 9 9 10 11 11 11 12 12 12 12 12 12 12 13 14 15 17 19 22 24 25 26 27 28 29 30 32 33
24 16 11 12 19 27 32 34 34 34 33 33 32 31 31 30 29 27 25 24 23 21 20 19 18 18 16 13 10 9 9 8 6 5 5 5 5 5 5 5 5 5 5 5 5 5 5 5 6 5 5 5 5 6 5 5 5 6 6 7 7 8 9 10 10 10 11 10 10 11 12 12 12 13 14 16 17 20 23 25 27 28 29 30 32 34 35 36
15 12 15 23 30 34 35 35 34 34 34 32 32 32 31 30 28 26 24 24 22 21 19 18 17 15 12 8 5 5 6 5 5 5 5 5 5 4 4 4 4 4 4 4 4 4 4 4 4 4 4 4 4 4 4 4 4 4 4 5 5 5 6 6 6 7 7 7 8 8 9 9 9 11 12 13 15 19 24 27 29 32 34 36 39 42 43 46
15 20 27 33 36 37 36 36 35 34 34 32 32 32 30 28 26 25 25 24 22 19 17 15 13 10 6 5 5 5 5 5 5 5 4 4 4 4 4 4 4 4 4 4 4 4 4 4 4 4 4 4 4 4 4 4 4 4 5 5 6 7 7 8 8 8 9 10 10 10 11 11 11 11 11 12 15 19 22 27 31 34 38 43 48 51 55 58
26 31 35 38 38 38 36 35 35 35 34 33 33 31 28 26 25 26 25 23 19 16 13 10 8 6 5 5 5 5 5 5 4 4 4 4 5 4 4 5 5 5 5 5 5 5 5 4 4 4 4 4 5 5 6 7 7 8 8 9 9 9 10 11 11 10 10 11 12 14 14 12 11 13 15 16 18 21 24 27 32 37 44 50 56 60 64 69
35 37 39 39 38 37 36 36 35 34 33 33 31 28 26 26 26 27 25 20 15 11 8 6 5 5 5 5 5 5 5 4 4 4 5 5 6 5 5 5 5 5 5 5 5 5 5 5 5 5 5 5 6 7 8 9 9 8 8 8 8 8 8 8 8 7 7 7 10 14 12 9 11 14 16 18 21 24 28 33 40 47 55 60 65 71 78 86
38 40 40 39 38 37 37 36 35 34 33 32 29 27 27 27 27 25 21 14 9 7 6 5 5 5 5 5 4 5 5 5 6 5 6 6 6 6 5 5 5 5 5 5 5 5 5 6 5 6 6 7 8 8 7 7 7 6 6 6 5 5 5 4 4 4 4 5 6 11 10 7 8 11 14 19 24 29 36 46 56 65 73 79 84 90 95 98
41 42 40 39 38 38 37 36 35 34 33 30 28 27 28 27 24 21 14 8 6 5 5 5 6 5 5 4 4 5 6 6 6 6 6 6 6 6 6 6 6 5 5 5 5 5 5 6 6 6 7 7 7 6 6 5 5 5 4 4 3 3 3 3 3 3 3 3 5 9 11 8 6 9 17 24 33 44 54 64 73 82 92 97 99 99 100 100
43 42 41 39 38 38 37 36 35 34 31 28 28 28 27 23 18 14 8 5 5 5 6 6 5 5 5 5 6 6 6 6 7 6 7 6 6 6 5 5 5 5 5 5 5 6 6 6 6 7 6 6 6 6 6 5 5 4 3 3 3 3 3 3 3 3 4 5 7 10 11 11 9 14 29 44 56 63 69 77 85 91 98 100 100 100 100 100
43 42 40 38 39 39 37 36 34 32 29 28 29 26 21 15 10 7 5 5 6 6 6 5 5 5 5 6 7 7 7 7 7 7 6 6 6 5 5 5 5 5 5 5 6 6 6 7 6 6 6 6 6 6 5 4 3 3 3 3 3 2 3 3 3 4 4 5 9 12 15 16 16 24 40 52 58 61 69 85 95 97 99 100 100 100 100 100
43 40 39 39 40 38 37 37 33 30 29 29 25 18 11 7 5 5 5 6 6 5 5 5 5 6 7 7 7 7 8 7 7 6 6 6 5 5 5 4 4 4 5 5 6 6 6 6 6 6 6 6 6 5 4 4 3 3 3 3 3 3 3 3 3 4 5 7 11 16 23 26 23 28 39 48 58 73 87 98 101 100 100 100 99 100 100 100
42 39 40 40 39 38 37 35 32 30 29 24 15 8 5 5 5 6 6 5 6 5 5 6 6 7 7 7 8 7 7 7 6 6 5 5 4 4 4 4 4 5 6 6 6 6 6 7 7 7 7 6 5 4 4 4 3 3 3 2 3 3 3 4 4 5 7 9 13 17 24 30 28 33 50 70 85 95 99 99 99 100 101 101 101 99 94 89
41 40 40 39 37 38 36 33 30 27 21 13 7 5 5 6 6 6 5 5 5 6 6 7 7 7 8 8 8 7 7 6 6 5 5 4 4 4 4 5 6 7 7 7 7 8 8 8 8 7 6 4 4 4 4 3 3 3 3 2 3 3 4 5 6 7 8 11 16 20 25 33 40 52 73 91 96 97 97 98 100 101 99 96 92 85 80 76
41 39 37 36 36 37 33 29 24 17 11 6 5 6 6 6 6 5 5 5 6 6 7 8 8 8 8 8 7 6 6 5 5 4 4 4 5 7 7 7 8 8 8 8 8 8 8 7 7 5 5 4 4 4 3 3 3 2 2 2 2 3 4 5 6 8 10 13 18 20 26 39 55 69 80 89 92 93 93 92 91 90 85 79 73 68 62 55
37 35 35 35 34 31 25 18 13 8 6 5 6 7 6 6 5 5 5 6 7 7 8 8 8 8 7 7 6 5 5 4 4 4 5 6 7 8 8 8 9 9 9 9 9 8 7 6 6 5 5 4 4 3 3 3 2 2 2 2 2 3 5 7 9 11 13 16 20 21 27 40 54 64 69 72 76 77 74 72 71 68 61 55 49 42 33 25
33 34 34 31 26 20 12 8 6 6 6 6 7 6 6 5 5 6 7 7 8 8 9 9 8 7 6 6 5 5 5 4 5 6 7 8 8 9 9 9 9 10 10 9 9 8 7 6 5 5 4 3 3 3 3 3 2 2 2 2 4 5 8 11 13 15 17 18 20 23 27 32 38 43 46 46 47 46 43 42 39 35 31 27 24 20 19 20
32 31 27 20 13 8 6 5 6 7 7 7 7 6 5 6 6 7 7 8 9 9 9 8 7 6 6 5 5 4 4 5 7 8 8 8 9 9 9 10 10 10 10 9 8 8 7 6 5 4 4 3 3 3 3 3 2 3 2 3 6 7 9 14 17 19 21 21 22 23 25 26 27 27 27 27 26 24 22 20 19 19 19 19 20 22 24 26
27 22 15 9 6 5 6 7 7 7 7 6 6 6 6 7 8 9 9 9 9 8 7 7 6 6 5 4 4 4 5 7 8 9 9 9 9 9 10 10 10 10 10 9 7 7 6 5 4 4 4 3 3 3 2 2 2 2 2 3 5 7 9 15 22 25 25 25 24 24 25 27 26 24 23 24 23 22 22 21 21 23 24 24 26 26 27 28
17 11 7 6 6 7 7 7 7 7 6 6 6 7 8 8 9 10 10 9 8 7 6 6 5 5 4 4 4 6 7 8 9 9 9 9 9 10 10 10 11 10 10 9 7 6 5 5 4 3 4 3 3 3 2 3 2 2 3 3 4 8 12 16 23 26 28 28 28 28 29 29 28 28 27 28 28 27 27 27 27 28 28 28 29 30 31 33
8 6 6 7 7 8 8 7 6 6 6 7 8 8 9 10 10 9 9 8 6 6 6 5 5 4 4 5 6 8 9 9 10 10 10 10 10 10 10 11 11 10 10 9 7 6 5 4 4 3 3 3 3 3 2 3 3 2 3 3 4 9 14 19 22 26 29 31 32 32 32 32 32 32 31 31 32 32 31 32 32 32 33 34 35 36 38 39
7 8 8 8 8 8 7 6 6 7 8 9 9 10 10 10 9 8 7 6 6 6 5 5 5 4 5 6 8 9 10 10 10 10 11 11 11 11 11 11 11 10 10 8 7 6 5 4 4 4 3 3 3 3 3 3 3 3 3 4 5 7 11 16 21 27 30 32 34 31 29 35 36 33 34 34 35 35 36 36 36 37 38 40 40 42 43 44
9 9 8 8 8 7 7 7 9 9 9 10 10 10 10 8 7 6 6 6 6 5 5 5 5 5 6 8 9 10 10 10 11 11 11 12 12 12 11 11 11 10 9 8 7 6 5 4 4 4 3 3 3 3 3 3 3 3 4 4 6 7 10 15 20 26 28 29 33 25 21 33 39 35 37 37 37 39 40 40 41 41 43 44 45 46 45 44
9 8 8 8 8 8 9 9 10 10 11 11 10 9 8 7 6 6 6 6 6 5 5 5 6 7 8 9 10 10 11 11 12 12 12 12 13 12 12 12 11 10 8 7 6 5 5 4 4 4 4 3 4 3 3 4 3 4 4 3 5 5 8 13 17 22 23 22 24 17 15 28 34 32 32 31 33 38 39 38 38 39 41 42 41 40 38 36
9 9 9 9 10 11 11 10 10 11 11 10 9 7 7 6 6 6 6 6 6 6 7 7 8 9 9 10 10 11 11 12 12 13 13 13 13 13 13 12 11 10 8 7 6 5 5 5 4 4 4 4 4 4 4 4 4 4 4 4 4 4 5 7 9 13 15 15 13 10 11 18 20 17 17 16 20 26 27 25 25 26 27 28 28 28 27 26
10 11 11 11 12 12 12 11 12 11 9 8 7 7 6 7 6 6 7 7 8 9 9 10 10 10 10 11 12 12 12 13 13 14 14 14 14 14 13 12 11 9 8 7 6 6 5 5 4 4 5 4 4 4 4 5 4 5 5 4 5 5 5 6 6 7 9 10 8 7 8 11 10 9 9 9 11 13 13 13 13 14 15 16 19 21 21 21
12 12 13 12 13 13 12 12 11 9 8 7 7 7 7 7 7 8 9 9 10 11 11 11 11 12 12 12 13 14 14 14 14 15 15 15 15 15 14 13 11 9 8 7 6 6 6 6 5 5 5 5 5 5 5 5 5 5 6 5 6 6 6 7 7 7 7 8 8 8 8 9 9 9 9 9 10 9 10 11 11 12 13 13 15 17 18 19
13 14 14 13 13 13 11 10 9 8 8 7 7 7 7 8 8 9 10 11 12 12 13 13 13 14 14 14 15 15 15 15 16 16 16 16 16 16 14 13 11 9 8 7 6 6 6 6 6 6 6 5 6 6 6 6 6 6 7 7 7 8 8 8 9 9 9 9 9 10 11 10 10 11 11 11 11 11 12 12 11 12 13 14 15 17 18 19
15 14 14 14 13 12 10 9 8 8 8 8 8 8 8 9 10 11 12 13 13 13 14 15 15 15 16 16 16 16 16 17 17 17 17 18 17 17 16 13 11 10 8 7 7 7 6 6 6 6 7 6 7 7 7 7 8 8 8 9 9 9 10 10 10 11 11 12 11 12 13 13 12 13 13 14 14 15 15 15 15 15 15 16 17 18 20 22
15 14 14 13 12 10 9 9 9 9 9 8 8 9 9 9 11 12 13 14 14 15 15 16 17 17 17 17 17 18 18 18 18 18 19 19 19 18 17 14 12 10 9 8 7 7 7 7 7 7 8 8 8 8 9 9 10 10 10 11 11 12 12 12 12 13 13 14 14 14 15 16 15 16 16 16 17 17 16 16 16 16 16 17 19 20 22 25
15 14 13 12 10 10 9 9 10 9 9 9 9 9 10 10 11 13 13 14 16 16 17 18 18 19 19 19 19 20 20 20 20 20 20 21 20 19 18 16 13 12 11 10 9 8 8 8 9 9 9 10 10 10 11 11 12 12 13 13 13 13 13 13 14 15 16 16 16 16 16 17 17 18 18 17 18 18 17 16 16 17 18 19 21 23 26 29
15 13 12 11 10 10 10 10 11 10 10 10 10 10 11 11 12 14 14 15 17 17 18 20 20 20 21 21 21 22 22 22 22 22 22 22 22 21 20 17 15 14 12 12 11 10 10 10 10 11 11 12 13 13 14 14 14 15 16 16 16 16 16 16 15 16 18 19 19 18 18 17 17 19 20 18 18 18 18 17 18 19 21 23 25 28 31 34
14 12 11 11 11 12 11 11 11 11 11 11 11 11 12 12 13 15 15 16 17 19 19 21 21 22 23 23 23 24 24 24 24 24 24 24 23 23 21 19 17 15 15 15 14 14 14 13 13 14 14 15 16 16 17 17 17 18 19 19 19 19 19 19 18 18 19 22 23 22 22 21 20 22 22 20 20 21 21 21 22 23 25 28 31 33 36 39
13 13 12 12 13 13 13 13 13 12 12 12 12 12 13 14 14 15 17 17 18 20 21 23 23 24 25 25 26 26 27 27 27 27 26 25 25 24 23 21 19 18 18 19 18 18 18 17 17 16 16 17 18 18 18 19 20 21 22 23 23 24 24 24 24 22 21 24 27 27 26 26 26 26 26 25 24 26 26 26 27 29 31 34 36 38 41 45
14 15 14 13 14 15 15 14 14 14 14 14 14 14 14 15 15 16 18 18 19 21 23 25 26 27 28 28 28 29 29 29 29 29 28 27 26 25 24 22 21 20 20 20 21 21 21 21 21 21 19 20 22 22 22 23 24 25 26 28 29 30 30 31 30 27 24 27 32 33 32 32 31 30 31 31 30 31 32 31 31 34 37 39 41 44 47 50
Wind_Speed
13 14 14 15 15 15 15 14 14 13 13 12 11 10 10 9 7 6 5 5 5 6 6 6 7 8 8 9 10 10 10 11 11 11 11 11 12 12 12 13 14 15 16 17 18 18 19 20 20 21 22 23 24 25 25 26 27 28 29 29 26 26 29 32 34 33 32 33 35 35 36 37 38 38 38 38 39 40 41 42 43 42 43 43 44 45 45 45
12 12 13 13 13 13 12 12 12 12 11 11 11 11 11 11 11 11 10 10 10 10 10 10 10 10 11 11 12 12 12 13 13 12 13 13 14 14 15 16 16 17 18 19 20 20 21 21 21 22 23 24 25 26 26 26 28 29 30 30 28 28 31 33 35 35 35 36 37 37 38 39 40 41 42 42 42 42 42 43 44 44 45 45 46 46 47 47
9 9 9 10 10 10 10 10 10 10 10 11 11 12 12 13 13 14 13 13 13 13 13 12 12 12 12 12 12 13 13 15 14 14 14 15 15 15 16 16 17 18 18 19 20 21 22 22 22 23 24 25 26 27 27 27 28 30 31 30 30 32 33 34 37 38 38 39 39 39 39 41 42 43 44 45 45 45 44 44 45 46 46 47 47 48 48 48
7 6 6 7 7 8 9 10 10 11 11 12 12 13 14 14 15 15 15 15 15 14 14 13 13 12 13 12 12 12 13 14 15 15 15 15 15 15 16 16 18 19 19 20 21 22 23 23 23 24 25 26 27 28 29 30 31 32 33 32 32 34 35 37 39 40 41 41 41 41 42 43 44 46 47 47 47 47 47 47 47 47 47 48 48 48 48 49
4 5 5 6 7 8 9 10 11 12 13 13 14 15 15 16 17 17 17 16 15 14 13 12 12 12 12 12 11 12 13 14 15 15 15 15 15 16 16 18 19 20 21 21 22 22 23 24 24 25 25 27 28 30 31 32 33 34 35 34 34 36 37 39 40 42 43 43 43 43 44 46 46 48 49 48 48 48 49 49 48 48 47 47 48 48 48 49
3 4 6 7 8 9 10 12 13 14 15 15 16 17 18 18 19 18 17 16 14 13 12 11 11 11 11 11 11 12 13 14 14 14 15 15 16 16 17 18 19 20 21 21 22 23 24 25 26 27 27 28 30 31 33 34 35 36 36 36 37 38 39 40 41 43 43 43 43 44 46 47 48 49 49 48 48 49 49 49 48 47 47 47 48 48 49 49
3 5 6 8 10 11 13 14 15 16 17 18 19 19 20 20 19 18 16 14 13 12 12 11 11 10 11 10 10 12 13 13 13 14 15 16 16 16 17 18 18 19 21 22 23 24 26 27 28 29 29 30 31 32 34 35 36 36 35 36 37 37 38 39 40 41 41 41 42 44 45 47 47 47 47 47 48 48 47 47 46 46 47 47 48 48 48 49
4 6 7 9 11 13 14 15 17 18 19 20 21 21 20 20 18 16 14 13 12 11 11 10 10 9 9 9 9 10 11 12 13 14 14 15 16 16 17 19 20 21 22 24 25 26 27 28 29 29 30 30 30 31 32 33 34 34 34 34 34 35 36 37 37 38 39 39 39 40 42 43 44 44 44 45 45 45 44 44 44 44 45 45 46 47 47 48
6 7 9 10 12 14 16 17 18 19 20 21 21 21 19 18 16 14 13 12 11 10 9 9 9 8 8 8 8 9 10 11 12 14 15 16 17 19 20 21 22 23 24 24 25 26 26 27 27 27 28 28 28 29 29 29 30 31 32 32 32 33 33 34 35 36 36 36 36 37 38 39 39 40 41 41 41 40 40 40 41 42 42 43 44 45 46 47
7 9 10 12 14 16 17 18 19 20 21 21 20 19 18 16 14 13 11 10 9 8 8 8 9 9 9 10 10 10 11 12 13 14 16 17 19 20 21 22 22 23 23 24 24 24 25 25 25 25 26 26 27 28 28 28 28 29 30 30 30 31 31 31 32 33 33 33 33 33 34 35 36 37 37 37 37 37 38 38 39 40 41 42 43 44 45 46
9 11 12 14 16 17 18 19 20 21 21 20 19 18 16 14 12 11 9 8 8 8 8 9 10 11 11 12 12 12 12 14 15 16 17 17 18 19 20 21 21 22 22 22 22 23 23 24 24 25 25 25 27 27 27 27 28 28 28 29 30 30 30 31 32 31 30 31 30 30 33 35 35 35 34 35 35 36 37 38 39 40 41 42 43 44 44 45
11 13 15 16 18 19 20 21 21 21 20 19 18 16 14 12 10 9 8 8 9 10 10 11 12 13 13 13 13 13 14 15 16 16 17 18 18 18 18 19 19 20 20 21 21 22 22 23 24 24 24 25 26 26 26 26 27 28 28 29 28 29 31 32 32 31 30 30 29 31 34 34 34 34 34 35 35 37 38 39 40 41 42 42 43 44 45 46
13 14 17 18 20 21 21 21 21 20 19 18 15 13 10 9 8 8 9 10 11 12 12 13 13 14 14 14 14 14 14 15 15 16 17 17 18 17 17 18 18 19 20 20 21 22 22 23 23 24 25 25 25 25 26 27 27 28 29 28 28 29 31 31 32 32 32 32 32 33 35 34 34 34 35 36 37 38 39 40 41 42 42 43 44 45 46 47
14 16 18 19 20 21 21 21 20 19 17 14 11 9 8 8 8 9 10 11 12 13 13 14 14 14 14 14 14 14 15 15 15 15 16 17 18 18 18 18 18 19 20 21 21 22 22 23 23 24 25 25 25 26 27 28 28 28 29 29 29 30 30 30 31 32 33 34 34 35 36 35 34 35 36 37 38 39 40 41 42 43 44 45 46 47 48 49
16 18 19 20 21 21 20 20 19 15 12 9 7 7 8 9 9 10 11 12 13 14 14 14 14 14 14 14 14 14 14 14 14 15 15 16 17 18 18 19 19 20 20 21 22 22 22 23 24 25 25 26 27 27 28 29 29 29 30 30 31 31 32 32 33 34 34 35 35 36 37 36 36 36 37 38 39 40 41 42 43 44 45 46 47 48 49 50
17 18 20 20 20 20 19 17 14 10 8 7 7 8 8 10 10 11 12 12 13 13 14 14 13 13 13 13 14 14 13 14 14 14 15 16 17 17 18 19 19 20 21 22 22 23 23 24 25 26 27 27 28 28 29 30 30 30 31 32 32 33 33 34 35 36 36 37 37 38 39 39 38 38 39 40 40 41 43 44 45 46 47 48 49 50 50 51
18 19 19 19 19 18 15 11 8 7 7 7 8 9 9 10 11 11 12 12 13 12 12 12 13 12 12 13 13 13 13 13 14 15 15 16 17 17 18 19 20 21 21 22 23 24 24 25 25 26 27 27 28 28 29 30 30 31 32 32 33 33 34 35 36 37 38 39 39 40 41 41 40 41 41 42 42 43 44 45 46 47 48 49 49 50 50 50
18 18 18 18 17 14 10 7 6 6 7 8 9 10 10 11 11 12 12 12 12 11 11 11 12 12 11 12 12 13 13 13 13 14 15 16 17 17 18 19 20 21 21 22 22 23 24 25 25 26 26 27 27 28 28 29 30 31 31 31 32 33 34 35 36 37 38 39 40 41 42 42 42 43 43 44 44 44 44 45 46 47 48 49 49 49 49 49
16 16 16 16 12 8 6 6 6 6 7 8 9 10 11 11 12 12 11 11 11 10 10 11 11 11 11 11 12 13 13 13 14 15 15 16 17 17 17 18 19 20 20 21 22 22 23 24 25 26 26 27 27 28 28 30 30 31 31 31 32 32 33 34 35 36 37 39 40 41 42 42 43 43 44 44 44 45 45 46 47 48 48 48 48 48 48 49
14 15 13 10 6 5 5 6 6 7 8 9 9 10 11 11 11 11 11 11 10 10 10 10 10 11 11 11 12 13 13 13 14 15 15 15 15 16 16 17 18 19 20 21 22 22 23 24 25 26 27 27 28 29 30 31 31 32 32 32 33 33 34 35 36 36 38 39 41 41 41 42 43 43 44 44 45 45 45 46 46 47 47 47 47 47 47 48
13 11 7 4 4 5 5 6 7 8 8 9 10 10 10 11 10 10 10 10 10 10 10 10 10 10 11 12 13 12 12 13 13 13 13 14 15 16 16 17 19 20 20 21 22 22 23 24 25 26 27 27 28 29 30 31 31 32 33 33 34 35 35 37 37 37 38 40 40 41 41 43 43 44 45 45 45 45 45 45 46 46 46 46 46 46 46 46
8 5 3 3 4 5 6 7 7 8 9 10 10 10 10 10 9 10 10 10 10 10 11 11 11 11 12 13 13 12 12 12 12 13 13 15 16 16 17 18 20 21 22 23 24 25 26 26 27 28 28 29 29 29 29 30 31 31 32 33 34 34 35 37 38 38 39 41 41 41 42 43 44 45 45 46 45 45 45 45 46 46 46 45 45 45 45 45
3 2 2 3 5 6 6 7 8 8 9 10 10 10 10 9 9 9 10 10 10 11 12 12 12 13 13 12 11 12 12 13 14 14 15 16 18 18 19 20 22 24 24 25 27 28 29 29 29 30 30 30 30 30 30 30 30 31 31 32 33 34 35 37 38 39 40 42 43 43 44 46 47 47 46 46 46 46 45 45 45 45 44 43 44 44 43 43
1 2 3 4 6 7 7 7 8 8 9 9 9 9 8 9 9 9 10 11 12 12 13 13 13 12 12 11 11 12 12 13 14 15 16 18 20 21 22 23 25 26 27 27 28 29 30 30 31 30 30 30 30 30 30 29 30 31 32 33 34 35 37 39 41 42 43 44 44 45 47 48 48 48 48 47 47 46 45 43 42 42 41 42 41 41 41 40
2 2 3 4 6 7 7 8 8 8 8 8 8 8 8 8 9 9 10 11 13 14 13 13 11 10 10 11 11 12 13 14 15 17 18 19 21 23 24 25 26 28 28 28 29 30 30 30 31 31 31 30 30 30 29 29 31 32 33 35 36 38 39 41 42 44 45 45 45 45 47 49 49 49 49 48 46 45 43 41 40 39 38 37 37 37 36 36
2 3 4 5 6 7 8 8 8 9 9 8 8 7 8 8 9 10 11 12 13 12 11 11 10 9 9 10 11 12 14 15 17 19 20 22 24 25 26 27 28 28 29 29 30 30 30 30 31 30 30 30 30 30 31 31 33 34 35 37 38 40 41 42 43 44 45 46 45 44 45 49 50 49 47 45 43 41 39 38 37 36 34 34 33 33 33 34
3 4 5 6 6 7 8 8 9 9 9 8 8 7 7 8 9 10 11 12 10 9 9 9 10 10 10 12 13 15 16 18 19 21 23 24 25 26 27 27 28 28 28 29 29 30 30 30 30 30 30 31 31 32 33 34 35 36 37 38 40 41 42 43 44 44 44 44 43 42 44 47 48 45 42 39 37 36 35 35 34 33 31 31 31 32 33 36
4 5 6 6 6 7 8 9 9 9 8 8 8 7 8 9 10 11 10 8 8 8 8 7 8 10 11 12 14 16 18 20 22 23 24 25 26 27 27 27 27 28 28 28 28 29 29 29 30 30 31 32 33 34 35 35 36 38 39 40 42 43 44 45 44 43 42 41 39 40 41 43 43 40 38 36 35 34 32 30 28 28 29 30 33 35 36 37
5 6 5 6 6 7 8 8 7 7 8 8 7 8 9 9 9 8 7 6 6 8 8 7 8 10 12 14 16 19 21 23 24 25 26 27 27 28 28 28 28 28 28 28 29 29 29 30 30 31 32 33 34 35 36 37 38 39 40 42 44 45 45 45 44 41 40 38 36 36 36 37 38 36 34 33 31 29 26 26 27 29 31 33 34 35 35 35
6 5 5 6 7 7 6 6 6 6 7 7 8 9 9 8 7 6 6 6 7 8 8 9 11 13 16 18 20 21 23 24 25 27 28 28 28 29 30 30 30 30 30 30 30 30 30 30 31 32 32 34 35 35 36 37 39 40 41 43 44 44 44 42 40 37 35 34 32 32 32 32 33 32 29 27 25 25 27 30 32 33 32 32 32 33 35 36
5 5 6 5 5 5 5 5 5 5 7 8 8 8 7 6 6 6 6 6 7 8 9 11 14 15 18 20 21 22 24 24 26 27 27 27 28 28 28 28 28 28 28 28 28 28 30 30 31 31 32 33 34 36 37 38 40 41 42 43 43 42 40 38 35 33 31 30 29 30 30 30 30 29 26 24 26 28 30 31 31 30 30 32 34 36 36 36
5 5 5 3 2 2 3 3 5 6 7 8 7 7 6 6 6 6 7 7 8 10 12 14 16 17 19 21 22 24 24 25 25 25 25 24 24 24 24 25 25 24 25 26 27 28 29 30 30 31 31 32 34 36 37 38 40 41 42 43 43 42 40 38 36 33 30 27 26 28 28 27 26 25 24 24 25 27 29 30 30 31 33 34 35 35 34 33
5 3 2 1 1 2 3 4 5 6 6 6 6 6 6 6 6 7 7 8 9 12 14 16 17 19 21 22 24 24 25 25 25 25 24 25 25 26 27 27 27 27 27 28 28 29 29 30 30 31 31 33 34 35 37 38 40 41 43 44 44 43 41 39 37 34 30 26 24 25 24 23 22 22 22 22 23 25 26 28 28 30 31 31 31 31 31 31
2 0 1 2 2 2 4 5 5 5 5 5 5 6 5 6 7 7 8 10 11 13 16 18 20 21 23 24 24 24 24 24 24 25 25 27 27 28 28 28 28 28 29 29 30 30 30 30 31 31 32 33 34 36 38 39 41 42 43 43 42 40 38 36 35 34 32 28 25 24 23 21 21 21 20 21 21 22 23 24 25 26 27 28 29 29 30 31
2 3 3 3 3 3 4 4 4 5 5 5 5 6 5 6 7 8 10 12 14 16 18 20 22 23 24 25 25 24 25 24 24 25 27 28 28 28 28 28 28 28 28 29 30 30 31 31 32 33 33 34 35 37 38 39 40 40 40 40 37 35 34 32 32 32 31 28 26 24 23 22 21 21 21 22 22 23 23 24 25 26 28 29 30 31 32 34
4 4 3 3 4 4 4 5 5 5 5 6 5 6 7 7 9 10 12 14 16 18 20 22 23 24 25 25 25 25 25 25 26 27 28 29 29 29 29 29 29 28 28 29 29 30 31 31 32 33 33 34 35 36 36 37 37 37 37 36 34 33 33 32 29 28 28 27 25 24 23 22 21 22 22 23 23 24 25 26 27 28 30 31 32 33 34 36
4 3 4 4 5 5 6 6 5 5 6 6 6 7 8 9 10 12 14 16 18 19 21 22 23 24 24 24 24 25 25 26 27 28 29 29 30 30 30 30 30 30 30 30 30 30 31 32 32 33 33 33 34 34 35 35 34 34 34 34 34 32 32 32 30 27 27 26 24 24 23 22 22 23 23 23 24 25 26 27 29 30 32 32 33 35 37 38
5 5 6 6 6 6 7 6 5 6 7 7 7 9 10 10 12 14 16 18 19 20 22 23 23 23 23 23 24 24 25 27 28 29 29 30 31 31 31 31 31 31 31 31 31 31 31 32 32 32 33 33 33 33 33 33 32 32 32 32 32 31 29 29 30 29 29 29 27 25 23 23 24 24 24 25 26 27 28 29 30 32 33 34 35 37 38 39
8 8 7 7 7 7 6 6 7 7 7 7 9 10 11 12 14 16 18 19 20 21 22 23 23 23 24 24 24 24 26 27 28 29 30 31 31 31 31 32 32 32 32 31 31 31 31 32 32 32 32 32 32 32 31 30 30 30 30 30 29 29 28 28 29 29 30 31 31 29 25 23 25 26 26 27 28 29 30 30 32 33 34 35 37 38 39 41
9 8 8 8 7 6 7 8 8 7 7 9 11 11 13 14 15 17 19 20 21 22 23 23 23 24 24 24 25 25 27 28 29 30 30 31 31 31 32 32 32 32 31 31 31 31 31 31 31 31 30 30 30 30 29 28 28 28 28 27 27 27 27 27 28 28 29 30 32 32 28 23 25 27 27 29 29 30 31 32 33 34 35 37 38 40 41 42
10 8 8 8 8 8 8 7 6 8 10 11 11 12 14 15 17 18 20 21 21 22 23 23 24 24 24 25 26 27 28 29 30 30 31 31 32 32 32 32 31 31 31 31 31 31 30 30 30 29 29 29 29 29 28 27 26 26 27 26 27 27 26 26 26 27 28 29 31 32 29 25 26 29 29 30 30 30 32 33 34 35 36 37 38 40 41 42
9 9 9 9 9 9 7 6 8 10 11 11 12 14 16 17 18 19 20 21 22 22 23 24 24 25 25 26 27 28 29 29 30 31 31 32 32 32 32 31 31 31 30 30 30 30 30 29 29 29 28 28 28 27 27 26 26 26 27 27 26 27 26 26 26 26 27 29 29 31 29 26 28 29 29 29 29 30 32 33 34 34 35 37 38 40 41 43
9 10 9 9 10 9 6 8 10 11 12 12 13 16 17 18 19 20 20 21 22 23 24 25 25 25 26 27 27 28 29 30 30 31 31 32 32 32 32 31 31 30 30 30 29 29 29 28 28 28 27 26 26 25 25 26 26 26 27 27 26 26 26 26 26 26 26 27 28 28 27 27 28 29 28 29 29 30 32 33 35 35 37 38 40 41 43 45
9 10 10 9 10 8 9 11 10 11 13 14 15 18 19 19 20 20 21 22 23 24 25 25 25 26 27 28 28 29 30 30 31 31 32 32 32 32 32 31 31 30 29 29 29 29 29 28 28 27 26 25 25 25 26 26 26 27 27 26 26 25 25 25 25 25 25 25 26 26 26 25 28 28 28 29 30 32 34 35 37 38 40 42 43 45 47 48
10 10 9 9 9 9 11 11 10 12 15 16 17 20 20 20 21 21 22 23 24 25 25 25 26 27 27 28 29 30 30 31 31 32 32 32 32 32 32 31 30 30 29 29 29 28 29 28 28 28 27 27 27 27 27 26 26 27 26 26 27 26 25 25 25 25 25 24 24 26 26 24 27 30 30 32 33 34 35 38 40 41 43 45 46 47 49 50
11 10 10 9 9 10 12 12 12 14 17 18 20 21 21 21 21 21 23 24 25 26 26 26 27 28 28 29 30 30 31 31 31 32 32 32 31 31 31 30 30 29 29 29 28 28 28 28 27 27 27 27 26 26 26 26 26 27 27 27 27 27 26 26 26 25 25 25 25 27 28 27 27 30 32 33 35 36 37 39 42 44 45 47 48 49 51 52
10 10 10 10 11 12 13 13 15 16 18 20 22 22 22 22 22 22 24 25 26 27 27 27 28 28 29 30 31 31 31 31 31 32 32 31 31 31 31 30 30 29 29 28 28 28 28 27 27 27 27 27 26 25 26 26 26 26 27 27 27 28 28 28 28 28 27 28 27 28 30 30 30 32 32 34 37 38 39 41 43 45 47 49 50 51 52 53
11 10 10 11 12 13 13 15 17 19 21 22 23 23 23 23 23 23 24 25 27 28 28 28 28 29 29 30 31 31 31 31 31 32 31 32 31 31 31 30 29 29 28 28 28 27 27 26 27 27 26 27 27 26 26 26 26 26 27 27 27 28 29 29 30 32 31 31 30 30 31 32 34 35 35 36 39 40 42 43 45 47 48 50 51 52 52 54
13 10 10 12 14 13 15 17 18 20 22 23 24 24 24 24 23 23 24 26 27 28 29 29 29 30 30 31 31 31 31 31 31 32 32 31 31 31 31 30 29 29 28 28 27 27 26 26 27 27 27 28 28 28 27 27 27 27 28 28 28 29 30 30 32 34 36 36 35 34 34 34 37 39 39 39 41 42 44 45 46 48 49 51 52 52 53 55
14 12 10 13 15 15 15 17 19 21 23 24 24 25 25 25 24 24 25 27 28 29 30 30 31 31 31 31 32 31 31 31 32 32 32 32 31 31 31 30 29 28 28 28 27 27 27 26 27 28 27 28 29 30 30 29 29 29 30 30 30 31 31 32 33 35 38 40 40 39 38 37 39 42 42 42 44 44 45 47 47 49 50 52 52 53 54 56
14 13 11 13 15 16 16 18 20 22 24 24 25 26 26 26 26 25 26 27 28 29 30 31 32 31 31 32 32 32 32 32 33 33 32 32 32 31 31 30 29 28 28 28 28 28 28 27 27 28 28 29 30 30 31 32 31 31 32 33 33 33 34 34 35 36 38 41 42 42 41 40 41 43 44 44 45 46 46 47 48 49 51 53 53 54 55 57
14 14 13 14 16 17 17 19 21 22 24 25 26 27 27 27 27 27 27 28 29 30 30 31 32 31 32 33 33 33 33 33 33 33 33 32 32 31 31 30 30 29 29 29 29 29 29 29 29 29 28 30 31 31 32 33 33 33 33 35 35 36 36 36 36 37 39 42 44 43 43 43 43 44 45 46 47 47 47 48 49 51 53 54 54 55 56 57
Wind_Direction
67 63 59 56 54 51 48 44 40 37 34 33 30 27 25 21 16 8 357 342 327 314 303 292 285 286 285 279 273 271 269 266 263 262 263 265 266 267 268 270 271 272 274 275 275 275 275 276 276 277 278 278 279 279 279 280 281 282 282 282 282 281 278 276 277 278 279 278 278 278 279 280 280 279 278 277 275 275 277 278 279 280 279 278 278 279 279 279
63 57 53 49 46 42 39 35 31 27 22 18 14 10 5 1 355 349 343 338 330 321 312 304 296 291 288 282 279 277 277 275 272 272 272 272 273 274 275 275 276 276 278 279 280 282 282 282 282 283 283 283 283 282 283 283 283 283 282 283 283 281 279 279 281 281 280 278 278 279 280 280 280 280 279 278 277 277 277 277 278 278 279 279 279 279 279 280
67 59 51 43 37 31 27 23 18 13 8 2 358 355 352 348 342 338 334 330 325 319 311 304 297 290 285 281 279 277 277 277 277 278 278 278 279 280 280 281 282 283 283 283 284 285 287 288 288 288 287 287 287 288 288 287 285 284 283 284 284 282 282 282 282 281 280 279 279 280 280 279 279 278 278 278 279 279 278 278 277 278 278 278 278 279 280 281
70 57 44 31 22 15 10 5 2 357 353 348 345 343 340 336 331 327 324 321 317 312 306 300 294 287 283 279 277 275 273 275 278 281 282 283 285 285 286 286 287 287 287 286 286 286 287 289 289 288 288 288 289 290 289 288 286 285 286 286 284 282 282 281 280 280 280 280 280 280 280 278 277 277 277 278 279 279 279 278 278 277 278 279 279 280 280 280
50 34 18 7 360 355 352 349 347 344 340 337 335 333 330 326 322 319 316 314 311 306 302 298 293 287 282 279 276 273 273 276 278 280 283 284 285 286 286 286 287 287 287 288 287 287 288 288 288 288 288 287 287 287 286 286 286 287 287 286 282 280 280 278 278 278 279 280 281 280 279 277 277 277 277 278 279 279 279 278 278 278 278 279 279 279 279 279
7 357 347 343 341 341 340 338 337 335 333 331 328 325 322 319 316 314 312 311 309 305 303 299 293 289 284 280 276 274 276 279 280 281 283 284 285 286 286 287 287 286 287 287 287 287 287 287 287 287 286 284 284 284 283 283 284 284 284 282 279 278 278 277 277 277 278 278 278 277 277 277 277 277 278 279 279 278 278 278 279 279 279 279 278 278 278 278
323 327 328 329 330 331 331 331 330 328 326 324 322 320 317 314 312 312 311 310 310 309 307 303 297 293 288 283 280 277 279 280 281 283 284 286 287 287 287 287 285 285 285 285 286 286 285 285 285 285 284 283 282 282 282 282 282 282 281 280 278 278 278 277 277 276 276 275 275 275 276 277 277 278 279 279 279 278 278 279 279 278 278 278 278 278 277 278
298 310 315 321 323 324 324 324 323 321 320 319 317 315 313 312 311 311 311 311 312 313 312 309 305 300 294 290 284 280 282 283 284 285 287 289 289 289 288 287 287 286 286 286 285 285 285 285 284 284 283 283 283 282 282 283 284 284 283 283 282 281 281 280 279 278 277 276 276 276 276 277 279 280 279 279 279 279 279 280 279 279 278 278 277 277 277 277
290 303 310 315 317 317 317 317 317 316 315 314 313 312 311 311 311 311 313 314 315 316 316 314 311 307 305 301 296 292 290 289 288 290 291 292 292 291 290 290 289 288 287 286 285 285 285 285 285 285 285 285 285 285 286 287 287 288 288 288 287 285 284 283 282 281 280 280 279 278 279 280 280 280 280 281 282 282 282 281 280 279 278 278 277 277 277 277
289 300 306 309 310 311 312 313 313 313 313 313 312 312 311 311 312 314 317 318 319 320 319 317 316 313 313 309 305 304 299 294 293 293 292 292 293 293 292 291 290 289 288 287 287 287 287 288 288 289 290 290 290 291 292 292 292 292 291 291 290 289 288 285 284 284 284 284 284 284 283 283 283 283 285 286 285 284 283 281 280 280 279 279 278 278 278 277
291 299 304 305 307 309 311 312 312 312 313 313 312 312 312 313 316 320 322 324 325 324 322 321 319 316 315 312 308 308 304 299 297 295 294 295 294 294 294 293 293 293 293 293 293 294 295 295 295 296 297 297 297 297 297 297 296 295 295 294 293 292 291 289 288 289 288 287 286 284 283 285 287 288 289 288 286 284 283 281 280 279 279 279 279 279 278 278
294 300 303 305 308 309 310 311 312 312 313 312 311 311 312 316 322 327 329 328 327 325 323 322 319 316 314 311 310 309 305 303 301 299 299 298 298 298 298 297 298 299 301 302 303 304 304 304 304 303 303 302 301 301 300 299 298 297 296 295 294 293 292 291 292 291 289 287 285 282 282 286 288 289 288 286 285 283 282 282 281 280 280 279 279 279 279 279
295 299 302 304 306 307 308 309 310 311 312 310 310 311 316 323 329 332 331 329 327 324 322 320 317 315 313 312 312 311 308 306 305 304 304 304 304 305 305 306 308 309 310 311 312 311 310 310 309 307 306 305 304 303 302 300 299 298 297 295 293 291 291 291 290 290 288 286 284 283 283 285 286 285 285 285 284 283 282 282 281 281 280 280 279 279 279 279
294 296 299 301 304 306 308 309 311 312 312 312 314 320 328 333 335 333 329 326 325 322 320 318 316 314 314 314 315 314 312 311 311 311 311 311 312 313 315 317 318 317 316 314 313 312 311 311 309 307 306 304 303 302 300 299 297 296 295 294 291 290 289 287 286 286 286 285 286 285 285 285 285 283 283 282 282 281 281 280 280 280 279 279 279 279 279 279
292 295 298 302 305 308 310 312 314 316 318 323 330 338 339 336 333 329 326 324 322 321 319 318 317 317 317 317 316 315 316 316 317 316 314 315 317 319 320 320 319 317 314 312 310 310 308 306 304 302 301 300 299 298 297 296 295 294 293 291 290 289 287 285 284 284 284 285 285 284 284 283 282 280 279 279 278 278 278 278 278 279 279 279 279 279 279 279
292 296 300 304 307 310 312 316 320 326 335 344 346 343 338 332 328 326 324 323 322 321 320 320 320 320 321 321 319 319 320 319 319 320 320 321 322 320 318 317 315 313 310 308 307 306 304 301 300 299 299 298 297 296 295 294 294 293 292 291 290 289 288 287 286 285 285 284 283 281 281 281 279 278 277 277 277 277 278 278 278 279 279 280 280 280 280 280
293 298 303 306 309 312 317 323 334 344 348 348 342 335 332 328 324 324 324 324 324 322 321 323 323 323 325 324 323 321 321 322 322 323 323 321 319 316 314 312 310 307 306 306 305 304 303 302 301 300 299 299 298 298 297 296 295 294 292 291 291 289 288 287 286 286 286 284 283 283 282 282 282 281 280 280 280 280 280 280 280 280 280 279 280 280 280 281
295 300 305 309 312 317 326 339 347 347 343 340 334 329 328 326 324 326 326 323 323 324 326 326 324 324 325 324 324 322 321 323 321 319 317 315 313 311 310 309 308 308 309 308 308 307 307 305 304 303 303 302 301 300 298 297 295 294 293 292 291 290 289 288 288 287 287 286 286 286 286 287 286 285 285 284 283 283 283 282 281 281 280 280 280 280 281 281
297 302 308 311 315 325 340 344 340 336 333 332 329 325 325 325 325 326 324 322 324 328 329 326 323 323 324 325 324 320 317 317 315 314 313 311 311 311 313 313 313 314 313 312 311 311 310 308 307 306 304 303 302 300 298 297 296 295 294 293 291 290 289 289 289 288 288 288 288 289 289 289 288 288 287 286 285 285 284 283 282 281 281 281 281 281 281 281
300 305 309 313 320 334 340 333 327 327 328 327 325 323 323 324 325 324 324 326 328 327 325 323 322 320 319 319 320 317 315 315 315 316 316 316 317 319 320 320 319 317 316 314 313 312 310 307 306 304 304 303 301 300 299 298 298 297 296 295 294 293 292 291 291 290 290 289 289 290 290 290 289 288 287 286 285 284 283 282 282 282 282 282 282 281 281 280
302 306 308 316 328 330 325 320 321 324 324 323 322 322 321 321 323 324 325 327 325 323 324 324 322 319 317 319 321 321 319 320 322 324 325 325 327 327 326 326 324 321 319 317 314 313 311 308 307 306 305 304 302 301 301 300 300 300 299 299 298 298 297 296 295 295 293 292 292 292 291 290 289 287 287 286 285 284 284 283 283 283 282 283 283 282 281 280
298 300 311 325 324 318 315 317 319 320 321 321 321 320 320 320 322 323 324 325 323 324 326 325 322 321 323 325 329 330 331 333 334 335 336 335 335 333 331 330 328 325 323 320 317 316 315 314 313 311 309 308 307 306 305 304 304 303 302 302 302 302 301 300 299 298 297 295 295 294 292 290 289 288 288 288 287 286 285 284 284 284 284 284 283 282 281 280
282 289 315 320 313 310 312 314 316 317 319 319 319 318 319 322 324 324 324 325 325 324 325 325 324 326 331 337 340 341 342 343 342 342 343 342 340 337 332 331 329 326 324 321 319 318 317 316 314 312 312 311 310 309 309 309 308 307 306 305 304 303 302 301 299 298 297 295 295 294 291 290 290 290 289 288 287 286 286 286 286 286 285 284 283 282 281 280
246 287 309 310 305 306 309 312 314 316 316 314 315 315 318 322 324 323 324 326 326 325 325 327 331 335 340 345 348 348 347 347 346 346 344 342 338 334 329 329 328 324 322 320 319 318 316 315 313 312 311 311 311 312 313 313 311 310 309 308 306 304 302 300 298 297 296 295 294 292 290 290 290 288 287 286 286 286 286 286 286 285 284 283 282 282 281 280
260 292 305 301 299 303 310 312 312 313 312 310 310 313 318 320 321 322 324 326 326 325 327 331 338 343 347 349 352 353 352 350 349 345 341 336 334 331 327 325 324 321 320 319 317 316 315 313 312 312 312 313 314 315 314 313 312 311 310 308 306 304 302 301 299 298 297 295 294 292 291 291 289 287 286 286 286 286 286 286 286 285 284 284 284 283 281 280
271 289 291 292 298 305 311 311 311 313 311 307 309 313 318 320 321 322 324 326 325 327 331 337 344 350 354 357 357 353 349 347 344 340 335 333 332 329 325 322 322 320 319 317 316 315 314 313 313 314 314 315 315 314 313 313 312 311 309 308 307 306 304 303 301 300 299 298 296 294 292 290 289 288 288 288 287 287 287 286 286 286 287 288 286 283 281 280
267 276 283 292 301 308 310 310 311 311 307 307 311 316 319 322 322 322 324 327 330 334 341 345 350 355 359 0 356 347 343 342 338 335 334 331 329 325 322 321 321 319 318 317 317 317 316 316 316 317 317 317 316 314 314 314 313 311 310 309 308 307 306 305 304 303 301 300 298 294 291 290 291 291 290 290 289 288 288 289 290 290 290 287 284 282 283 285
260 270 283 294 303 310 311 310 309 309 310 312 315 320 323 324 325 326 329 334 337 341 347 353 359 2 0 356 349 342 339 338 335 333 331 328 325 324 323 322 320 319 319 320 320 319 319 318 319 319 318 317 315 314 314 314 313 312 311 310 310 309 308 307 306 305 304 302 298 295 294 293 294 293 292 291 291 292 292 291 289 286 285 285 286 288 290 292
260 272 284 294 302 308 309 308 310 312 315 317 319 323 325 328 332 335 342 347 347 349 354 358 358 357 354 348 343 339 337 336 333 331 329 327 327 326 324 324 323 323 324 323 322 321 321 320 320 319 317 316 315 315 315 315 314 313 314 313 312 311 310 309 309 308 308 305 302 300 297 295 295 295 295 296 297 295 291 286 284 285 287 289 291 293 295 297
264 274 284 294 303 309 311 313 314 315 317 320 323 327 332 339 345 353 358 358 0 2 3 360 354 348 345 343 340 338 335 333 332 330 329 329 329 328 328 328 328 327 327 326 324 323 321 320 318 317 317 316 316 316 316 316 315 316 316 315 314 314 313 314 313 313 312 310 308 305 301 299 299 301 302 301 297 291 287 287 289 291 291 291 293 297 300 303
267 275 285 296 308 314 316 315 317 322 323 325 330 339 348 356 2 7 4 4 10 9 3 358 351 345 342 339 336 334 332 332 332 331 331 331 331 331 331 331 329 327 326 324 323 320 318 317 317 317 317 317 317 318 318 319 319 319 318 317 317 316 316 316 317 317 318 318 316 313 311 310 310 309 306 298 291 288 289 290 290 291 292 295 299 303 304 305
270 277 288 302 318 326 322 322 328 331 329 334 347 359 6 8 11 12 8 8 7 2 356 351 346 341 338 335 333 333 333 332 332 331 330 331 331 330 330 329 327 324 321 321 321 320 319 319 319 319 319 320 321 321 322 323 322 320 319 319 318 318 319 321 322 323 327 329 326 322 320 318 314 310 306 300 296 293 292 292 293 295 299 301 303 304 304 304
274 283 298 348 24 9 343 338 337 336 343 357 7 10 13 15 15 13 11 7 359 352 348 344 340 337 334 333 334 334 334 333 332 332 332 333 334 334 333 331 329 327 326 326 325 324 323 322 321 322 322 323 324 325 325 325 324 324 324 323 323 325 327 328 328 330 335 338 334 330 327 324 319 316 312 307 304 301 300 300 301 302 303 304 304 304 304 303
273 315 79 68 46 8 346 344 349 359 13 20 19 16 15 17 17 12 7 360 352 346 342 339 338 335 334 334 336 335 334 334 335 336 337 338 338 337 335 333 332 332 331 328 327 326 325 325 325 326 327 328 329 330 330 330 330 331 330 330 331 333 333 333 334 337 340 343 342 339 336 333 330 327 323 320 318 316 314 312 310 309 308 308 307 306 306 305
111 99 88 64 25 8 4 11 28 33 31 29 27 24 20 18 15 6 357 351 346 342 339 338 336 334 335 336 336 336 335 337 339 340 339 339 338 337 335 335 334 334 332 330 329 329 328 329 330 330 332 333 334 334 334 335 336 336 335 335 336 337 337 339 342 342 341 343 345 342 340 339 337 333 331 331 329 325 321 318 315 313 312 310 310 309 308 306
104 94 73 44 36 44 48 49 47 41 36 36 35 29 24 19 8 358 351 346 344 341 339 338 336 336 338 338 337 338 339 340 341 341 340 339 338 338 337 337 336 336 335 333 333 332 332 333 334 335 336 336 336 336 337 339 339 339 339 340 342 344 345 345 346 344 341 342 344 342 341 340 337 333 332 330 327 323 321 318 316 314 312 311 311 309 308 307
96 82 66 63 68 69 65 57 51 48 46 42 35 29 22 11 359 354 350 345 343 342 340 339 339 339 340 340 340 341 342 342 343 342 341 340 339 339 339 338 338 338 338 337 336 336 336 336 337 338 338 338 339 339 341 343 344 344 345 347 351 353 351 348 346 345 341 340 343 343 342 340 335 332 330 326 323 321 319 317 315 313 312 311 310 309 308 308
89 82 80 80 78 71 66 62 58 56 53 41 31 24 14 3 356 352 348 345 344 343 341 342 342 342 342 342 344 345 344 344 343 342 341 341 341 341 340 340 340 340 339 339 339 338 338 338 339 340 340 340 342 343 345 347 348 350 352 356 357 356 354 349 347 346 342 341 342 343 345 342 334 331 329 326 323 320 318 316 314 313 312 311 310 310 310 309
91 86 85 81 76 72 70 65 58 53 48 36 27 17 5 359 355 351 349 347 345 345 344 345 344 344 345 345 346 346 345 344 343 343 342 342 342 342 341 342 342 341 341 341 340 339 340 340 340 341 342 343 345 347 349 351 353 355 358 1 1 359 358 355 350 347 344 341 339 341 349 343 331 330 329 325 323 321 319 317 315 314 314 313 312 312 311 310
90 87 84 79 75 71 68 64 55 46 39 30 20 10 2 359 355 352 351 349 348 348 347 347 347 347 348 348 347 346 345 345 344 344 343 343 343 343 343 343 342 342 342 341 341 340 341 341 341 343 344 345 347 349 351 353 356 360 2 4 4 2 1 358 353 349 344 342 338 341 352 347 330 330 328 324 324 323 320 318 317 316 316 315 314 313 312 311
90 87 84 81 74 65 66 67 53 38 34 25 14 7 3 360 358 356 354 352 352 351 351 351 351 351 351 350 348 347 346 346 345 344 344 344 344 344 344 344 343 343 343 342 342 341 342 342 342 343 345 346 348 350 352 355 358 2 5 8 8 6 5 1 356 351 347 347 343 343 353 352 335 332 330 328 328 325 322 320 319 318 317 315 314 313 313 312
90 86 82 80 72 63 59 57 45 36 30 20 12 9 6 3 2 0 358 357 357 356 356 355 354 353 352 350 349 348 347 347 346 345 346 345 345 345 345 345 345 345 344 343 342 342 342 342 343 344 346 347 350 352 354 356 0 4 7 10 11 10 9 6 2 357 352 350 348 348 354 353 341 338 339 337 334 328 324 322 321 321 318 317 316 315 315 315
91 84 79 75 70 62 51 48 43 34 27 20 14 13 10 8 6 4 3 3 1 0 360 358 357 355 353 351 350 349 348 348 347 347 346 346 346 346 346 346 346 345 344 343 342 341 341 342 344 346 348 350 352 354 356 357 0 5 8 10 11 11 11 9 6 4 359 354 351 351 356 352 343 343 344 341 336 331 328 326 325 324 322 320 319 318 317 317
89 82 75 70 67 60 49 46 41 34 29 22 19 18 15 12 10 8 8 7 5 3 1 360 358 356 354 352 351 350 349 349 348 347 347 347 347 347 347 347 346 346 345 344 343 342 342 343 344 346 348 351 353 356 359 1 2 5 7 8 9 10 10 10 7 5 3 359 351 351 358 352 341 343 345 340 336 333 330 328 327 325 324 322 321 320 319 318
85 80 74 69 63 56 50 45 40 37 32 25 24 22 18 16 14 12 11 9 7 5 3 1 359 357 356 354 353 352 351 350 349 348 348 348 348 347 348 348 347 347 346 345 344 344 344 345 345 347 349 351 354 357 0 2 3 5 6 6 7 7 7 8 7 4 2 359 351 347 354 353 339 337 341 337 334 333 330 328 327 325 324 322 321 320 319 318
81 78 74 68 60 56 53 48 42 39 32 28 29 25 21 19 17 14 13 11 9 7 4 3 1 359 357 356 354 353 351 350 349 349 349 349 349 349 350 349 349 348 347 347 346 346 346 347 348 350 352 355 357 359 1 3 4 4 4 3 3 3 3 2 1 0 356 354 351 343 345 348 338 333 336 333 330 330 328 327 325 323 322 321 320 319 318 318
80 76 71 66 62 59 56 49 43 40 34 31 31 27 23 21 17 15 14 12 11 9 7 5 3 1 359 357 355 353 351 351 350 350 349 350 350 351 351 351 350 350 349 349 349 349 348 348 350 352 354 357 359 360 1 2 3 3 2 360 357 356 356 354 352 353 349 347 347 341 338 340 335 331 332 330 327 327 326 325 323 322 320 319 318 318 318 317
78 74 71 68 64 60 55 48 43 40 37 34 31 27 24 21 17 16 15 13 12 10 9 7 5 3 1 358 356 353 352 352 351 350 350 351 352 352 352 352 352 351 351 351 351 351 351 351 353 355 355 357 359 359 360 360 359 359 357 355 353 350 348 346 344 345 344 342 341 337 335 335 330 328 330 327 325 325 324 323 322 320 319 318 317 317 317 317
77 75 73 69 63 56 52 47 42 39 37 34 32 28 25 21 18 15 14 13 12 11 10 9 6 4 2 359 357 355 354 353 352 351 351 352 352 353 353 353 353 353 352 353 353 353 353 353 354 355 355 355 356 356 356 356 355 354 352 350 348 346 344 342 339 337 337 338 338 335 334 332 326 326 328 325 323 323 322 322 321 319 318 316 316 317 317 316
80 74 71 69 61 52 49 45 41 39 37 34 32 29 25 21 18 16 14 13 12 11 10 9 7 5 3 0 358 356 355 353 353 352 352 352 352 353 354 353 353 354 353 353 353 353 354 354 353 352 352 352 352 351 350 350 349 349 348 346 344 344 342 341 337 333 331 333 334 334 333 331 326 325 326 324 323 323 322 321 320 318 317 316 316 317 316 316
82 73 66 66 59 48 45 43 39 38 36 34 32 29 26 22 19 17 14 12 12 11 10 9 7 5 4 2 360 358 356 354 353 352 352 351 351 352 354 353 352 352 352 353 353 352 352 352 351 350 348 348 348 345 344 344 344 344 343 342 342 341 340 340 338 334 329 328 331 333 332 330 327 325 325 324 322 322 322 320 319 317 316 316 317 317 316 316
80 72 62 58 54 45 41 41 39 37 36 33 31 29 25 22 19 17 14 12 11 10 10 8 6 5 4 3 1 359 356 354 353 352 351 350 350 351 352 351 351 350 349 350 350 349 348 347 347 346 344 343 343 342 340 339 340 341 340 339 340 339 339 339 338 334 328 326 329 332 330 328 327 325 324 323 321 321 321 320 318 316 316 316 317 316 316 316